SKU1651 SCSE-SCEL

Flight info

Callsign SKU1651
Flight time 0h 38m
Altitude 31000
Route EDRON5 EDRON UL302 SIMOK SIMOK7B
Aircraft A319/M-SDE3FGHIRWY/LB1

Departure

Time 2026-04-20 16:15
Airport La Florida Airport (SCSE)

Arrival

Time 2026-04-20 16:53
Airport Comodoro Arturo Merino Benítez International Airport (SCEL)
Time Latitude Longitude Altitude Speed Heading
2026-04-20 15:54 -29.91667 -71.20340 480 ft 0 kts 206°
2026-04-20 16:05 -29.91669 -71.20341 480 ft 1 kts 206°
2026-04-20 16:05 -29.91676 -71.20335 475 ft 2 kts 131°
2026-04-20 16:05 -29.91668 -71.20318 480 ft 3 kts 43°
2026-04-20 16:06 -29.91648 -71.20296 479 ft 4 kts 47°
2026-04-20 16:06 -29.91642 -71.20260 480 ft 5 kts 100°
2026-04-20 16:06 -29.91659 -71.20217 480 ft 7 kts 115°
2026-04-20 16:06 -29.91668 -71.20165 480 ft 7 kts 67°
2026-04-20 16:07 -29.91652 -71.20147 476 ft 2 kts 34°
2026-04-20 16:07 -29.91646 -71.20143 477 ft 0 kts 31°
2026-04-20 16:11 -29.91632 -71.20134 478 ft 6 kts 28°
2026-04-20 16:11 -29.91600 -71.20078 477 ft 12 kts 93°
2026-04-20 16:11 -29.91634 -71.19974 475 ft 16 kts 114°
2026-04-20 16:11 -29.91688 -71.19847 474 ft 19 kts 116°
2026-04-20 16:12 -29.91748 -71.19706 475 ft 20 kts 116°
2026-04-20 16:12 -29.91809 -71.19564 476 ft 20 kts 116°
2026-04-20 16:12 -29.91871 -71.19420 479 ft 20 kts 116°
2026-04-20 16:12 -29.91933 -71.19272 480 ft 21 kts 116°
2026-04-20 16:13 -29.91990 -71.19150 478 ft 13 kts 127°
2026-04-20 16:13 -29.92046 -71.19086 476 ft 9 kts 114°
2026-04-20 16:13 -29.92024 -71.19070 473 ft 3 kts 326°
2026-04-20 16:13 -29.92014 -71.19089 477 ft 0 kts 296°
2026-04-20 16:14 -29.91964 -71.19204 475 ft 54 kts 296°
2026-04-20 16:14 -29.91678 -71.19874 474 ft 130 kts 296°
2026-04-20 16:14 -29.91242 -71.20937 928 ft 149 kts 295°
2026-04-20 16:15 -29.90802 -71.21999 1713 ft 149 kts 295°
2026-04-20 16:15 -29.90330 -71.23135 2228 ft 168 kts 294°
2026-04-20 16:15 -29.89810 -71.24437 2674 ft 190 kts 288°
2026-04-20 16:15 -29.89848 -71.26013 3056 ft 212 kts 243°
2026-04-20 16:16 -29.90937 -71.27240 3548 ft 237 kts 204°
2026-04-20 16:16 -29.92619 -71.27674 4215 ft 257 kts 185°
2026-04-20 16:16 -29.94440 -71.27746 5160 ft 267 kts 180°
2026-04-20 16:16 -29.96336 -71.27741 6048 ft 278 kts 180°
2026-04-20 16:17 -29.98297 -71.27766 6973 ft 286 kts 182°
2026-04-20 16:17 -30.00317 -71.27849 7872 ft 294 kts 184°
2026-04-20 16:17 -30.02388 -71.27990 8754 ft 303 kts 185°
2026-04-20 16:17 -30.04519 -71.28174 9637 ft 311 kts 186°
2026-04-20 16:18 -30.06722 -71.28390 10317 ft 328 kts 187°
2026-04-20 16:18 -30.09072 -71.28629 10764 ft 348 kts 186°
2026-04-20 16:18 -30.11521 -71.28793 11548 ft 356 kts 184°
2026-04-20 16:18 -30.13981 -71.28882 12440 ft 360 kts 183°
2026-04-20 16:19 -30.16500 -71.28935 13353 ft 364 kts 183°
2026-04-20 16:19 -30.19049 -71.28983 14192 ft 369 kts 184°
2026-04-20 16:19 -30.21632 -71.29038 14950 ft 373 kts 185°
2026-04-20 16:19 -30.24233 -71.29105 15749 ft 375 kts 185°
2026-04-20 16:20 -30.26859 -71.29180 16547 ft 378 kts 186°
2026-04-20 16:20 -30.29498 -71.29260 17337 ft 381 kts 187°
2026-04-20 16:20 -30.32163 -71.29343 18119 ft 385 kts 187°
2026-04-20 16:20 -30.34848 -71.29431 18836 ft 388 kts 188°
2026-04-20 16:21 -30.37562 -71.29523 19468 ft 392 kts 188°
2026-04-20 16:21 -30.40297 -71.29611 20179 ft 395 kts 189°
2026-04-20 16:21 -30.43054 -71.29694 20883 ft 398 kts 189°
2026-04-20 16:21 -30.45799 -71.29775 21549 ft 402 kts 189°
2026-04-20 16:22 -30.48607 -71.29860 22192 ft 405 kts 190°
2026-04-20 16:22 -30.51433 -71.29943 22857 ft 409 kts 189°
2026-04-20 16:22 -30.54324 -71.29697 23470 ft 424 kts 179°
2026-04-20 16:22 -30.57228 -71.28825 24011 ft 440 kts 167°
2026-04-20 16:23 -30.60043 -71.27310 24520 ft 452 kts 158°
2026-04-20 16:23 -30.62819 -71.25570 25011 ft 455 kts 158°
2026-04-20 16:23 -30.65621 -71.23820 25494 ft 459 kts 159°
2026-04-20 16:23 -30.68445 -71.22062 26018 ft 462 kts 159°
2026-04-20 16:24 -30.71290 -71.20292 26525 ft 465 kts 159°
2026-04-20 16:24 -30.74117 -71.18532 26989 ft 469 kts 159°
2026-04-20 16:24 -30.77006 -71.16731 27404 ft 473 kts 159°
2026-04-20 16:24 -30.79916 -71.14915 27829 ft 477 kts 159°
2026-04-20 16:25 -30.82855 -71.13083 28284 ft 480 kts 159°
2026-04-20 16:25 -30.85815 -71.11238 28733 ft 484 kts 159°
2026-04-20 16:25 -30.88788 -71.09384 29187 ft 488 kts 159°
2026-04-20 16:25 -30.91797 -71.07499 29634 ft 492 kts 159°
2026-04-20 16:26 -30.94820 -71.05602 30091 ft 496 kts 160°
2026-04-20 16:26 -30.97865 -71.03692 30452 ft 500 kts 160°
2026-04-20 16:26 -31.00936 -71.01763 30821 ft 503 kts 160°
2026-04-20 16:26 -31.03985 -70.99844 31080 ft 504 kts 160°
2026-04-20 16:27 -31.10040 -70.96013 31157 ft 479 kts 160°
2026-04-20 16:27 -31.12921 -70.94179 31161 ft 466 kts 160°
2026-04-20 16:27 -31.15746 -70.92393 31158 ft 460 kts 161°
2026-04-20 16:28 -31.21383 -70.88860 31165 ft 460 kts 161°
2026-04-20 16:28 -31.27035 -70.85326 31190 ft 461 kts 162°
2026-04-20 16:29 -31.32827 -70.82455 31193 ft 440 kts 178°
2026-04-20 16:29 -31.35783 -70.81827 31189 ft 425 kts 188°
2026-04-20 16:29 -31.38681 -70.81714 31187 ft 410 kts 197°
2026-04-20 16:30 -31.44267 -70.82250 31204 ft 406 kts 199°
2026-04-20 16:30 -31.49916 -70.82810 31202 ft 408 kts 199°
2026-04-20 16:31 -31.55559 -70.83363 31184 ft 406 kts 199°
2026-04-20 16:31 -31.61182 -70.83917 31167 ft 405 kts 199°
2026-04-20 16:32 -31.64002 -70.84199 31059 ft 410 kts 199°
2026-04-20 16:32 -31.66845 -70.84487 30820 ft 411 kts 200°
2026-04-20 16:32 -31.69691 -70.84768 30612 ft 411 kts 199°
2026-04-20 16:32 -31.72539 -70.85049 30361 ft 409 kts 200°
2026-04-20 16:33 -31.75383 -70.85279 29900 ft 414 kts 194°
2026-04-20 16:33 -31.78280 -70.85200 29444 ft 416 kts 191°
2026-04-20 16:33 -31.81168 -70.85094 29014 ft 414 kts 191°
2026-04-20 16:33 -31.84035 -70.84989 28579 ft 412 kts 191°
2026-04-20 16:34 -31.86850 -70.84884 28159 ft 408 kts 191°
2026-04-20 16:34 -31.89673 -70.84778 27717 ft 405 kts 190°
2026-04-20 16:34 -31.92481 -70.84674 27291 ft 402 kts 190°
2026-04-20 16:34 -31.95271 -70.84573 26870 ft 400 kts 189°
2026-04-20 16:35 -31.98055 -70.84479 26390 ft 399 kts 189°
2026-04-20 16:35 -32.00828 -70.84385 25930 ft 398 kts 188°
2026-04-20 16:35 -32.03591 -70.84292 25470 ft 397 kts 188°
2026-04-20 16:35 -32.06345 -70.84196 24996 ft 395 kts 187°
2026-04-20 16:36 -32.09082 -70.84099 24508 ft 392 kts 187°
2026-04-20 16:36 -32.11804 -70.84004 24033 ft 391 kts 187°
2026-04-20 16:36 -32.14510 -70.83907 23517 ft 389 kts 186°
2026-04-20 16:36 -32.17204 -70.83809 23028 ft 385 kts 186°
2026-04-20 16:37 -32.19868 -70.83710 22563 ft 382 kts 186°
2026-04-20 16:37 -32.22515 -70.83613 22109 ft 379 kts 186°
2026-04-20 16:37 -32.25140 -70.83518 21671 ft 375 kts 185°
2026-04-20 16:37 -32.27741 -70.83425 21227 ft 372 kts 185°
2026-04-20 16:38 -32.30305 -70.83334 20808 ft 365 kts 185°
2026-04-20 16:38 -32.32790 -70.83245 20387 ft 360 kts 185°
2026-04-20 16:38 -32.35269 -70.83151 19969 ft 354 kts 185°
2026-04-20 16:38 -32.37708 -70.83059 19571 ft 348 kts 185°
2026-04-20 16:39 -32.40112 -70.82975 19175 ft 344 kts 185°
2026-04-20 16:39 -32.42511 -70.82891 18774 ft 345 kts 184°
2026-04-20 16:39 -32.44910 -70.82809 18358 ft 345 kts 184°
2026-04-20 16:39 -32.47308 -70.82726 17943 ft 344 kts 184°
2026-04-20 16:40 -32.49688 -70.82642 17547 ft 341 kts 184°
2026-04-20 16:40 -32.52047 -70.82558 17161 ft 337 kts 184°
2026-04-20 16:40 -32.54375 -70.82470 16796 ft 334 kts 184°
2026-04-20 16:40 -32.56704 -70.82385 16424 ft 335 kts 184°
2026-04-20 16:41 -32.59032 -70.82302 16052 ft 335 kts 184°
2026-04-20 16:41 -32.61366 -70.82220 15688 ft 335 kts 184°
2026-04-20 16:41 -32.63676 -70.82140 15324 ft 337 kts 183°
2026-04-20 16:41 -32.66011 -70.82058 14964 ft 335 kts 183°
2026-04-20 16:42 -32.68343 -70.81977 14598 ft 336 kts 183°
2026-04-20 16:42 -32.70675 -70.81893 14271 ft 334 kts 183°
2026-04-20 16:42 -32.72969 -70.81804 14172 ft 324 kts 183°
2026-04-20 16:42 -32.75193 -70.81715 14023 ft 316 kts 183°
2026-04-20 16:43 -32.77386 -70.81629 13622 ft 318 kts 182°
2026-04-20 16:43 -32.79578 -70.81547 13299 ft 313 kts 182°
2026-04-20 16:43 -32.81747 -70.81468 12903 ft 311 kts 182°
2026-04-20 16:43 -32.83905 -70.81392 12530 ft 309 kts 182°
2026-04-20 16:44 -32.86052 -70.81314 12069 ft 307 kts 182°
2026-04-20 16:44 -32.88182 -70.81236 11521 ft 305 kts 181°
2026-04-20 16:44 -32.90299 -70.81161 10992 ft 304 kts 181°
2026-04-20 16:44 -32.92402 -70.81177 10476 ft 300 kts 189°
2026-04-20 16:45 -32.94462 -70.81493 9945 ft 298 kts 191°
2026-04-20 16:45 -32.96510 -70.81806 9397 ft 295 kts 190°
2026-04-20 16:45 -32.98529 -70.82110 8895 ft 291 kts 190°
2026-04-20 16:45 -33.00530 -70.82367 8360 ft 289 kts 184°
2026-04-20 16:46 -33.02528 -70.82277 7923 ft 285 kts 179°
2026-04-20 16:46 -33.04471 -70.82167 7459 ft 281 kts 179°
2026-04-20 16:46 -33.06413 -70.82062 6968 ft 278 kts 179°
2026-04-20 16:46 -33.08325 -70.81955 6493 ft 273 kts 178°
2026-04-20 16:47 -33.10210 -70.81848 5989 ft 270 kts 178°
2026-04-20 16:47 -33.12064 -70.81742 5604 ft 261 kts 178°
2026-04-20 16:47 -33.13818 -70.81640 5451 ft 243 kts 178°
2026-04-20 16:47 -33.15438 -70.81546 5356 ft 225 kts 178°
2026-04-20 16:48 -33.16951 -70.81457 5298 ft 209 kts 178°
2026-04-20 16:48 -33.18360 -70.81379 5198 ft 198 kts 178°
2026-04-20 16:48 -33.19719 -70.81307 4993 ft 193 kts 178°
2026-04-20 16:48 -33.21047 -70.81236 4743 ft 190 kts 178°
2026-04-20 16:49 -33.22361 -70.81165 4512 ft 188 kts 178°
2026-04-20 16:49 -33.23659 -70.81096 4259 ft 186 kts 178°
2026-04-20 16:49 -33.24943 -70.81027 4014 ft 184 kts 178°
2026-04-20 16:49 -33.26215 -70.80959 3771 ft 183 kts 178°
2026-04-20 16:50 -33.27459 -70.80893 3531 ft 177 kts 178°
2026-04-20 16:50 -33.28644 -70.80829 3299 ft 164 kts 178°
2026-04-20 16:50 -33.29747 -70.80770 3079 ft 154 kts 178°
2026-04-20 16:50 -33.30786 -70.80715 2869 ft 145 kts 178°
2026-04-20 16:51 -33.31771 -70.80662 2676 ft 139 kts 177°
2026-04-20 16:51 -33.32727 -70.80611 2477 ft 135 kts 176°
2026-04-20 16:51 -33.33657 -70.80561 2301 ft 133 kts 176°
2026-04-20 16:51 -33.34581 -70.80512 2111 ft 132 kts 176°
2026-04-20 16:52 -33.35482 -70.80463 1931 ft 129 kts 176°
2026-04-20 16:52 -33.36365 -70.80418 1769 ft 125 kts 175°
2026-04-20 16:52 -33.37234 -70.80371 1612 ft 125 kts 175°
2026-04-20 16:52 -33.38029 -70.80330 1571 ft 96 kts 178°
2026-04-20 16:53 -33.38523 -70.80302 1573 ft 52 kts 177°
2026-04-20 16:53 -33.38861 -70.80283 1574 ft 45 kts 177°
2026-04-20 16:53 -33.39122 -70.80270 1574 ft 28 kts 178°
2026-04-20 16:53 -33.39293 -70.80220 1572 ft 21 kts 156°
2026-04-20 16:54 -33.39405 -70.80143 1569 ft 10 kts 147°
2026-04-20 16:54 -33.39458 -70.80102 1567 ft 11 kts 147°
2026-04-20 16:54 -33.39516 -70.80035 1566 ft 13 kts 116°
2026-04-20 16:54 -33.39529 -70.79923 1565 ft 14 kts 88°
2026-04-20 16:55 -33.39527 -70.79845 1565 ft 8 kts 88°
2026-04-20 16:55 -33.39525 -70.79788 1565 ft 7 kts 89°
2026-04-20 16:55 -33.39525 -70.79750 1565 ft 7 kts 88°
2026-04-20 16:55 -33.39521 -70.79687 1565 ft 7 kts 84°
2026-04-20 16:56 -33.39517 -70.79630 1565 ft 6 kts 88°
2026-04-20 16:56 -33.39547 -70.79609 1565 ft 6 kts 179°
2026-04-20 16:56 -33.39583 -70.79608 1565 ft 4 kts 178°
2026-04-20 16:56 -33.39604 -70.79607 1565 ft 1 kts 178°
2026-04-20 16:57 -33.39605 -70.79607 1565 ft 0 kts 178°